Location: Newark
(8.3333°N, 39.1667°E)
Time: 20:47:21
(UTC+00:00)

Falcon 9 debris - Pass Details

Date: 27 August 2019
Orbit: 430 x 438 km, 53.0° (Epoch: 23 October)

Event Time Altitude Azimuth Distance (km) Brightness Sun altitude
Rises 16:42:01 0° 300° (WNW) 2,392 8.3 -17.3°
Reaches altitude 10° 16:44:41 10° 278° (W) 1,524 7.2 -17.9°
Maximum altitude 16:46:55 16° 237° (WSW) 1,196 5.9 -18.4°
Drops below altitude 10° 16:49:08 10° 196° (SSW) 1,522 5.9 -19.0°
Enters shadow 16:50:05 - 186° (S) 1,796 6.2 -19.2°
